Location: American Canyon
(38.1966°N, 122.1514°W)
Time: 17:23:58
(UTC+00:00)

Cosmos 2292 Rocket - Pass Details

Date: 29 October 2020
Orbit: 381 x 1451 km, 83.0° (Epoch: 23 November)

Event Time Altitude Azimuth Distance (km) Brightness Sun altitude
Rises 13:46:59 0° 186° (S) 2,262 6.5 -9.5°
Reaches altitude 10° 13:48:50 10° 186° (S) 1,449 5.5 -9.1°
Maximum altitude 13:51:53 90° 247° (WSW) 447 2.8 -8.5°
Drops below altitude 10° 13:55:34 10° 7° (N) 1,743 5.8 -7.8°
Sets 13:57:58 0° 7° (N) 2,785 6.9 -7.3°
